Flag for France Weather past 2 weeks in Bourges, France

Now
72 °F

Partly sunny.


Feels Like: 76 °F
Forecast: 57 / 74 °F
Wind: 6 mph from Northwest

Location: Bourges

Current Time: Jul 7, 2015 at 9:40:20 AM

Latest Report: Jul 7, 2015 at 9:00 AM


Visibility: 25 mi

Pressure: 29.93 "Hg

Humidity: 57%

Dew point: 56 °F

Location of BourgesLocation

Historic Weather in Bourges — Graph

°F

Bourges temperature yesterday

Maximum temperature yesterday: 90 °F (at 7:00 PM)
Minimum temperature yesterday: 61 °F (at 6:00 AM)
Average temperature yesterday: 76 °F

Past Weeks' High & Low Weather Summary

 TemperatureHumidityPressure
High97 °F (Jul 1, 5:00 PM)91% (Jun 23, 6:00 AM)30.21 "Hg (Jun 23, 6:00 AM)
Low49 °F (Jun 24, 6:00 AM)26% (Jun 26, 5:00 PM)29.85 "Hg (Jun 22, 5:00 PM)
Average74 °F56%30.08 "Hg
* Reported Jun 22 8:00 AM — Jul 7 8:00 AM, Bourges, Weather by CustomWeather, © 2015

Note: Actual official high and low records may vary slightly from our data, if they occured in-between our weather recording intervals... More about our weather records

Advertising

Bourges weather history for previous 24 hours

 ConditionsComfort  
Time TempWeatherWind HumidityBarometerVisibility
8:00 AM
Tue, Jul 7
69 °FPartly sunny.7 mph69%29.94 "Hg25 mi
7:00 AM64 °FPassing clouds.2 mph83%29.93 "Hg25 mi
6:00 AM65 °FPassing clouds.3 mph78%29.93 "Hg22 mi
4:00 AM70 °FPassing clouds.3 mph74%29.94 "Hg12 mi
3:00 AM71 °FMild.5 mph71%29.94 "Hg12 mi
2:00 AM74 °FMild.3 mph65%29.95 "Hg12 mi
1:00 AM75 °FMild.No wind62%29.96 "Hg12 mi
12:00 AM79 °FWarm.2 mph51%29.96 "Hg12 mi
11:00 PM
Mon, Jul 6
80 °FWarm.1 mph53%29.96 "Hg12 mi
10:00 PM82 °FWarm.3 mph48%29.96 "Hg12 mi
9:00 PM86 °FWarm.5 mph43%29.96 "Hg12 mi
8:00 PM88 °FHot.6 mph40%29.97 "Hg12 mi
7:00 PM90 °FHot.5 mph35%29.98 "Hg12 mi
6:00 PM89 °FHot.6 mph37%29.99 "Hg12 mi
5:00 PM88 °FPassing clouds.7 mph38%30.01 "Hg31 mi
4:00 PM87 °FPassing clouds.5 mph37%30.04 "Hg31 mi
3:00 PM86 °FPassing clouds.6 mph39%30.06 "Hg31 mi
2:00 PM83 °FPassing clouds.5 mph41%30.08 "Hg31 mi
1:00 PM81 °FPassing clouds.5 mph44%30.11 "Hg31 mi
12:00 PM78 °FPassing clouds.5 mph44%30.14 "Hg31 mi
11:00 AM76 °FPassing clouds.7 mph50%30.15 "Hg31 mi
10:00 AM73 °FPassing clouds.7 mph57%30.17 "Hg31 mi
9:00 AM69 °FPassing clouds.1 mph66%30.18 "Hg31 mi
Weather by CustomWeather, © 2015

See weather overviewHow to use our weather pages